Temperature
20 19 19 19 19 19 19 19 19 19 19 19 19 19 19 19 19 19 19 19 19 19 19 19 19 18 19 19 18 18 18 18 18 18 18 18 18 18 18 18 17 17 18
20 19 19 19 19 19 19 19 19 19 19 19 19 19 19 19 19 19 19 19 19 19 19 18 18 18 18 18 18 18 18 18 18 18 18 18 18 18 18 18 17 17 18
20 19 19 19 19 19 19 19 18 18 18 18 18 18 19 19 19 18 19 19 18 18 18 18 18 18 18 18 18 18 18 18 18 18 18 17 17 18 18 17 17 17 17
20 19 18 19 19 18 18 18 18 18 18 18 18 18 18 18 18 18 18 18 18 18 18 18 18 18 18 18 18 18 18 18 18 18 18 17 17 17 18 17 17 17 17
19 19 18 19 19 19 19 19 19 18 18 18 18 18 18 18 18 18 18 18 18 18 18 18 18 18 18 18 18 18 18 18 18 17 17 17 17 18 18 17 17 17 17
19 19 18 19 19 19 19 19 19 18 18 18 18 18 18 18 18 18 18 18 18 18 18 18 18 18 18 18 18 18 18 18 18 17 17 17 17 18 17 17 17 17 17
20 19 18 19 19 19 19 19 19 18 18 18 18 18 18 18 18 18 18 18 18 18 18 18 18 18 18 18 18 18 18 18 17 17 17 17 17 17 17 17 17 17 17
20 19 19 19 19 19 19 19 19 19 18 18 18 18 18 18 18 18 18 18 18 18 18 18 18 18 18 17 18 18 18 18 17 17 17 17 17 18 17 17 17 17 17
20 19 19 19 19 19 19 19 18 18 18 18 18 18 18 18 18 18 18 18 18 18 18 18 18 18 18 18 18 18 18 18 17 17 17 17 18 18 18 18 17 17 17
20 19 19 19 19 18 18 18 18 18 18 18 18 18 18 18 18 18 18 18 18 18 18 18 18 18 18 18 18 18 18 18 17 18 17 17 18 18 18 18 18 17 17
19 19 19 19 19 19 18 18 18 18 18 18 18 18 18 17 17 17 17 18 18 17 17 18 17 18 18 17 18 18 18 17 18 18 18 18 18 18 18 18 18 17 17
19 19 19 19 19 18 18 18 18 18 18 18 18 18 17 17 17 17 18 18 18 18 18 18 18 18 17 17 17 17 17 17 18 18 18 18 18 18 18 18 18 17 17
19 19 19 19 18 18 18 18 18 18 18 18 18 18 18 17 17 17 17 17 17 17 17 17 17 17 17 17 17 17 17 17 18 18 18 18 18 18 18 18 18 18 17
19 19 19 19 18 18 18 18 18 18 18 18 17 17 17 17 17 17 17 17 17 17 17 17 17 17 17 17 17 17 17 17 18 18 18 18 18 18 18 18 18 18 17
19 19 19 18 18 18 18 18 18 18 18 17 18 17 17 17 17 17 17 17 17 17 17 17 17 17 17 17 17 17 17 17 17 17 17 18 18 18 18 18 18 18 17
19 19 19 19 18 18 18 18 18 17 18 17 17 17 17 17 17 17 17 17 17 17 17 17 17 17 17 17 17 17 17 17 17 17 17 17 18 18 18 18 18 17 17
19 19 19 18 18 18 18 18 18 17 17 17 17 17 17 17 17 17 17 17 17 17 17 17 17 17 17 17 17 17 17 17 17 17 17 17 17 17 18 18 18 17 17
19 19 19 18 18 18 18 18 17 17 17 17 17 17 17 17 17 17 17 17 17 17 17 17 17 17 17 17 17 17 17 17 17 17 17 17 17 17 17 17 17 17 17
19 19 19 18 18 18 18 18 17 17 17 17 17 17 17 17 17 17 17 17 17 17 17 17 17 17 17 17 17 17 17 17 17 17 17 17 17 17 17 17 17 17 17
19 19 19 18 18 18 18 18 17 17 17 17 17 17 17 16 16 16 16 17 17 17 17 17 17 17 17 17 17 17 17 17 17 17 17 17 17 17 17 17 17 17 17
19 19 19 18 18 18 18 18 17 17 17 17 17 17 17 16 16 16 16 16 16 16 16 16 16 17 17 17 17 17 17 17 17 17 17 17 17 17 17 17 17 17 16
19 19 19 18 18 18 18 18 17 17 17 17 17 17 17 16 16 16 16 16 16 16 16 16 16 16 16 16 17 17 18 17 17 17 17 17 17 17 17 17 16 16 16
19 19 19 18 18 18 18 17 17 17 17 17 17 17 17 16 16 16 16 16 16 16 16 16 16 16 16 16 16 17 18 18 18 17 17 16 16 17 17 16 16 16 16
19 19 19 19 18 18 18 17 17 17 17 17 17 16 16 16 16 16 16 16 16 16 16 16 16 16 16 16 16 16 16 17 17 17 17 17 16 16 16 16 16 16 16
19 19 19 18 18 18 18 17 17 17 17 16 16 16 16 16 16 16 16 16 16 16 16 16 16 16 16 16 16 16 16 16 16 17 17 16 16 16 16 16 16 16 16
20 19 19 18 18 18 18 17 17 17 17 16 16 16 16 16 16 16 16 16 16 16 16 16 16 16 16 16 16 16 16 16 16 16 16 16 16 16 16 16 16 15 15
Wind_Speed
4 7 11 8 7 7 7 7 7 8 9 11 11 11 11 10 10 10 9 9 9 9 10 10 9 9 9 9 9 9 9 9 9 10 9 9 8 8 8 8 8 9 10
6 8 10 8 8 7 7 7 7 7 8 9 10 10 9 9 9 10 9 9 9 9 9 9 9 9 9 9 9 9 8 8 9 9 9 9 8 8 7 6 4 8 10
7 8 9 8 8 8 7 7 7 6 7 8 8 9 8 8 8 9 9 9 9 9 9 9 8 9 9 9 8 8 8 8 8 8 8 8 9 8 7 7 6 9 9
7 8 9 10 8 7 7 7 6 6 6 6 7 7 8 8 7 7 8 8 8 8 8 8 8 8 8 8 8 8 8 7 8 8 7 6 7 9 7 7 8 9 9
8 8 10 9 8 7 6 6 6 5 5 5 5 6 7 7 7 7 7 7 7 7 7 7 7 8 7 8 8 8 7 7 7 8 5 5 6 9 8 7 8 9 10
8 8 11 8 8 7 7 6 6 5 5 5 5 5 5 5 6 6 7 7 7 7 7 7 7 7 8 8 8 7 7 7 8 6 5 5 6 9 8 7 8 9 10
8 8 11 9 7 7 6 6 6 5 5 4 4 4 4 4 4 4 5 6 6 7 7 7 6 6 7 8 8 8 8 7 7 4 5 5 6 9 8 8 8 9 9
7 8 10 9 7 6 6 5 5 4 3 3 3 3 4 4 4 4 4 5 5 6 7 6 6 6 6 7 7 7 8 8 7 5 5 5 7 8 8 8 8 8 9
7 6 6 7 7 7 6 4 4 3 2 2 2 3 4 4 3 3 3 4 4 5 5 5 6 6 6 7 8 8 8 9 7 5 6 5 8 8 8 8 8 9 9
6 5 5 5 5 5 6 5 3 2 2 1 2 2 3 5 5 5 5 4 3 4 4 4 5 6 6 7 7 9 10 10 8 6 5 6 9 9 9 9 8 9 9
5 4 4 4 3 2 3 5 4 3 2 2 3 3 4 4 3 5 3 3 3 4 4 4 5 6 7 8 9 9 10 8 7 5 4 6 9 9 9 9 8 9 10
4 4 3 3 2 2 2 3 1 1 2 1 1 1 1 1 1 2 4 3 4 4 5 5 6 8 9 7 9 10 7 8 7 5 5 7 7 9 9 9 8 9 10
4 3 3 3 1 1 1 1 1 1 1 1 1 0 0 1 2 2 2 3 4 5 4 4 6 5 5 4 4 6 6 6 5 5 5 8 8 8 9 9 9 10 10
4 3 3 2 1 1 1 1 0 0 0 1 1 1 0 0 1 0 1 1 2 2 1 2 2 3 4 4 4 5 5 6 5 4 4 8 8 8 9 10 10 10 10
3 2 2 2 2 1 1 1 1 1 1 1 1 1 1 1 1 0 1 1 2 1 2 2 2 2 3 4 4 4 5 5 5 5 4 7 8 9 9 10 10 10 10
2 2 2 2 2 1 1 0 1 1 1 1 1 1 2 1 1 1 1 1 1 2 1 2 2 3 3 3 3 4 4 4 5 5 5 6 8 8 8 9 9 10 9
3 2 2 2 2 2 1 1 0 1 1 1 1 1 2 2 1 2 2 2 2 2 2 2 2 2 2 3 3 3 3 4 4 4 4 4 6 8 8 8 8 8 8
3 3 2 2 2 2 1 1 1 1 2 2 2 2 2 2 2 2 2 2 2 2 1 1 2 2 1 2 2 2 3 3 4 4 4 4 3 4 7 7 7 7 7
3 3 3 2 2 2 1 1 1 1 1 1 2 2 2 2 2 2 2 2 2 2 2 2 1 1 1 2 2 2 2 2 3 3 3 3 3 3 3 7 7 6 6
4 4 3 3 2 1 1 1 1 1 1 1 1 2 2 2 2 2 1 2 3 2 1 1 1 1 2 2 2 1 2 2 2 3 3 3 3 3 3 4 6 7 7
4 4 3 2 2 1 0 1 0 0 0 0 0 1 1 2 2 2 2 1 2 2 2 2 2 2 2 1 2 2 3 3 2 2 3 2 3 3 3 3 4 4 6
5 4 4 3 2 1 0 0 1 1 1 0 1 1 1 1 1 1 2 2 2 1 2 2 2 2 2 2 2 2 2 4 4 3 3 3 3 3 3 3 2 3 3
5 5 4 3 3 2 1 1 1 0 0 0 0 0 1 1 1 2 2 2 2 2 1 2 2 3 2 2 2 2 2 2 1 3 2 2 1 2 2 2 3 2 3
6 5 5 4 3 3 2 1 1 0 1 1 1 1 1 1 2 2 2 2 2 2 1 2 1 2 3 3 2 2 2 2 2 1 2 2 2 2 2 2 2 3 3
6 6 5 5 4 3 3 2 1 1 0 1 1 2 1 1 2 2 2 2 2 2 2 2 1 3 3 3 2 2 2 1 3 2 2 1 1 2 2 2 2 2 3
6 6 5 5 4 4 3 3 2 1 1 1 1 1 1 1 1 2 2 2 2 2 2 2 2 2 2 2 2 1 2 2 2 2 3 3 3 2 2 2 3 2 3
Wind_Direction
106 109 114 122 122 116 113 111 116 120 129 137 142 142 143 146 149 152 152 153 151 148 150 152 150 146 145 144 143 141 139 138 137 137 137 137 140 141 142 148 164 147 137
113 111 113 119 120 116 111 109 111 117 125 135 142 143 147 150 155 157 159 161 158 155 155 155 155 152 151 149 147 145 144 142 143 145 147 146 146 147 147 157 176 134 144
115 117 124 115 116 116 114 110 111 111 124 133 141 148 156 158 160 162 163 163 162 159 158 157 156 156 154 153 154 152 150 151 151 156 178 165 147 151 154 158 156 148 151
118 121 115 115 112 110 114 117 115 115 123 130 143 154 162 165 164 163 163 162 160 158 157 158 159 159 159 162 162 160 159 159 164 186 189 161 150 145 158 163 163 160 158
111 112 109 114 111 108 109 113 117 117 121 128 143 155 164 165 165 165 164 164 163 162 160 159 161 164 167 171 170 169 169 170 184 209 176 166 153 147 165 171 172 170 165
114 112 111 116 110 104 104 112 112 114 118 128 136 145 156 162 165 168 168 170 175 176 171 168 165 172 177 179 178 177 176 180 204 198 180 178 160 158 174 181 183 177 171
113 109 110 116 112 108 102 103 105 109 114 123 133 138 145 156 162 175 179 181 188 190 187 182 181 180 185 190 190 186 182 194 220 197 186 185 158 159 177 182 180 178 177
112 112 112 121 119 117 116 108 104 103 104 110 128 145 150 150 160 175 190 193 197 194 190 191 192 187 191 199 197 191 194 214 214 201 199 190 147 163 178 182 183 185 186
107 110 117 129 135 134 124 118 111 106 104 114 125 139 153 162 172 183 186 199 199 195 193 197 197 200 203 207 203 200 203 221 230 201 197 187 158 180 189 191 193 193 195
106 107 111 114 118 138 139 134 131 121 110 116 139 152 178 188 190 198 197 195 211 199 193 193 200 205 208 208 207 207 208 215 226 209 199 176 165 187 197 202 201 199 201
99 97 99 103 105 107 112 122 150 155 159 193 170 178 216 214 199 192 168 160 208 205 199 199 206 208 210 205 206 210 213 215 214 214 200 156 172 193 204 210 212 206 206
113 108 100 86 79 80 90 104 121 156 125 122 83 158 214 200 227 207 148 183 210 217 210 207 212 212 217 207 196 205 215 212 214 215 190 157 181 198 206 213 220 217 214
123 110 101 97 89 79 100 101 97 45 75 119 96 54 66 231 200 212 202 191 206 214 221 200 214 221 216 218 214 209 217 222 219 220 191 168 190 203 206 212 218 221 220
117 111 102 104 98 48 19 34 178 113 49 36 67 334 318 256 236 214 241 253 234 218 227 248 230 222 225 219 220 221 225 228 225 223 192 175 198 205 207 215 221 225 221
123 118 107 101 93 80 46 314 21 23 16 65 42 21 322 290 288 285 269 273 274 256 228 229 229 222 221 218 215 213 226 230 230 227 209 186 204 209 212 216 220 225 222
135 127 113 106 102 94 100 13 3 6 42 30 20 16 332 325 328 298 268 288 290 286 275 253 236 226 223 217 216 212 221 225 222 224 224 191 190 201 214 220 224 226 221
142 125 115 116 97 91 59 21 37 3 33 13 18 10 334 329 334 301 310 293 315 307 273 241 236 239 228 217 216 216 217 219 214 218 221 209 194 191 202 215 222 220 217
142 127 123 119 107 99 68 21 13 14 34 9 357 355 359 349 332 312 318 313 316 298 287 250 239 236 236 241 233 226 215 207 206 208 207 201 206 198 185 191 201 208 209
143 135 136 130 120 114 117 90 27 40 22 3 354 344 2 343 333 316 328 333 310 306 300 280 211 237 235 239 229 209 215 208 201 198 202 208 201 210 199 170 181 190 195
144 143 135 138 130 136 118 106 32 22 20 11 360 6 348 341 335 320 312 332 313 304 298 297 264 233 241 241 246 218 220 197 191 192 203 200 198 212 215 202 192 185 185
154 152 149 151 138 171 190 293 293 281 281 10 27 19 339 335 335 327 322 319 298 300 308 284 254 226 228 224 229 217 201 192 193 206 209 208 205 212 219 223 216 206 187
168 164 165 172 165 199 186 333 345 351 314 46 13 35 329 326 308 304 331 309 311 301 288 275 258 270 252 228 251 244 219 197 202 206 202 206 214 215 218 214 204 207 218
179 176 177 177 176 191 191 171 105 89 305 37 25 23 5 344 327 334 337 331 324 297 305 290 263 252 255 241 244 271 268 264 193 178 190 190 203 214 219 203 192 191 203
184 178 175 172 176 177 184 197 200 26 359 10 3 22 19 8 349 341 341 338 326 329 324 283 277 257 252 249 230 258 292 330 280 220 185 178 187 213 232 230 207 191 205
181 179 173 168 172 174 178 177 199 234 310 7 13 27 350 22 8 355 360 353 338 335 336 324 315 272 253 262 263 255 255 254 270 273 257 263 240 224 217 224 221 215 206
178 179 173 168 171 172 176 178 204 224 264 326 347 350 327 17 10 3 354 345 323 336 332 310 294 259 271 278 284 278 263 265 260 262 262 258 263 270 248 237 232 232 222
Height
1519 1519 1517 1517 1518 1518 1519 1520 1520 1521 1522 1523 1524 1526 1527 1528 1529 1531 1532 1533 1534 1535 1536 1537 1538 1539 1540 1540 1541 1542 1543 1544 1544 1545 1546 1546 1547 1547 1548 1548 1549 1550 1550
1520 1520 1518 1518 1519 1520 1520 1521 1522 1523 1524 1524 1526 1527 1528 1529 1530 1531 1532 1533 1535 1536 1537 1538 1538 1539 1540 1541 1542 1543 1543 1544 1545 1545 1546 1547 1547 1547 1548 1549 1550 1551 1551
1521 1521 1520 1520 1521 1521 1522 1523 1523 1524 1525 1526 1527 1528 1529 1530 1531 1532 1533 1534 1535 1536 1537 1537 1538 1539 1540 1541 1542 1543 1544 1545 1545 1546 1547 1548 1548 1548 1548 1549 1549 1550 1551
1522 1522 1522 1521 1522 1523 1523 1524 1524 1525 1526 1526 1527 1528 1529 1530 1531 1532 1533 1534 1535 1536 1537 1537 1538 1539 1540 1541 1542 1543 1544 1545 1546 1546 1548 1549 1549 1548 1549 1549 1550 1550 1551
1523 1524 1523 1523 1523 1524 1524 1524 1525 1526 1526 1527 1528 1529 1530 1531 1531 1532 1533 1534 1534 1535 1536 1537 1538 1539 1540 1541 1542 1543 1544 1545 1546 1547 1548 1549 1549 1548 1548 1549 1550 1550 1551
1525 1525 1524 1524 1525 1525 1525 1525 1526 1526 1527 1527 1528 1529 1530 1531 1531 1532 1532 1533 1534 1534 1535 1536 1537 1538 1539 1540 1542 1543 1544 1544 1546 1547 1548 1548 1549 1548 1548 1549 1549 1550 1551
1526 1527 1526 1525 1525 1525 1526 1526 1526 1527 1527 1528 1529 1529 1530 1530 1531 1531 1532 1533 1533 1534 1535 1536 1536 1537 1539 1540 1541 1542 1543 1544 1546 1547 1547 1548 1548 1547 1548 1549 1549 1550 1550
1528 1528 1527 1526 1526 1526 1526 1527 1527 1528 1528 1528 1529 1529 1530 1530 1531 1531 1532 1532 1533 1533 1534 1535 1536 1536 1537 1538 1539 1541 1542 1543 1545 1546 1547 1547 1547 1547 1547 1548 1549 1549 1550
1529 1529 1529 1528 1527 1527 1527 1527 1527 1528 1528 1529 1529 1529 1530 1530 1530 1531 1531 1532 1532 1533 1533 1534 1535 1536 1537 1537 1538 1540 1541 1542 1545 1546 1546 1546 1546 1546 1547 1548 1548 1549 1549
1530 1530 1530 1530 1530 1530 1529 1528 1528 1528 1528 1528 1528 1529 1529 1530 1530 1531 1531 1531 1532 1532 1533 1533 1534 1535 1536 1537 1538 1539 1540 1541 1543 1545 1545 1545 1545 1546 1546 1547 1548 1548 1549
1530 1530 1531 1531 1531 1531 1531 1530 1529 1528 1528 1527 1528 1528 1529 1531 1531 1531 1531 1531 1531 1532 1532 1533 1533 1534 1535 1536 1537 1538 1539 1541 1542 1544 1544 1544 1544 1545 1545 1546 1547 1547 1548
1531 1531 1531 1531 1531 1531 1531 1530 1530 1530 1529 1528 1528 1529 1529 1529 1530 1531 1530 1530 1531 1531 1532 1532 1533 1534 1534 1535 1536 1536 1538 1539 1541 1542 1542 1542 1543 1543 1544 1545 1545 1546 1547
1532 1532 1532 1531 1531 1531 1531 1531 1530 1530 1529 1529 1529 1529 1529 1529 1529 1530 1530 1530 1531 1531 1532 1532 1533 1533 1533 1534 1535 1536 1536 1538 1539 1540 1541 1540 1541 1542 1542 1543 1544 1545 1545
1532 1532 1532 1532 1531 1531 1531 1531 1531 1530 1530 1530 1529 1529 1529 1529 1529 1529 1529 1530 1530 1531 1530 1531 1531 1531 1532 1532 1533 1534 1535 1536 1537 1538 1538 1538 1539 1540 1541 1541 1542 1543 1543
1532 1532 1532 1532 1531 1531 1530 1531 1531 1530 1530 1530 1529 1528 1528 1529 1528 1528 1528 1528 1529 1529 1529 1529 1530 1530 1530 1531 1531 1532 1532 1534 1535 1536 1536 1536 1537 1538 1539 1540 1540 1541 1542
1532 1532 1532 1532 1531 1531 1530 1530 1530 1530 1530 1530 1529 1528 1528 1528 1528 1528 1527 1527 1528 1528 1528 1528 1529 1529 1529 1530 1530 1530 1531 1531 1532 1533 1534 1535 1535 1536 1537 1537 1538 1539 1539
1532 1532 1532 1532 1532 1531 1531 1531 1531 1531 1530 1530 1529 1528 1527 1527 1527 1527 1527 1527 1527 1527 1527 1527 1527 1528 1528 1528 1528 1529 1529 1530 1530 1531 1532 1533 1534 1534 1535 1535 1536 1537 1537
1532 1532 1532 1532 1532 1531 1531 1531 1531 1531 1530 1529 1529 1528 1527 1527 1526 1526 1526 1526 1526 1526 1526 1526 1526 1526 1526 1527 1527 1527 1528 1528 1528 1529 1530 1531 1532 1533 1533 1533 1534 1535 1535
1531 1531 1531 1532 1532 1531 1531 1530 1530 1529 1529 1529 1528 1528 1527 1526 1526 1526 1526 1525 1525 1525 1525 1525 1525 1525 1525 1525 1525 1525 1526 1526 1527 1528 1528 1529 1530 1531 1532 1532 1532 1533 1533
1531 1531 1531 1531 1531 1531 1531 1530 1530 1529 1529 1528 1528 1527 1526 1526 1525 1525 1525 1524 1524 1524 1523 1523 1523 1523 1523 1524 1524 1524 1525 1525 1525 1526 1527 1528 1528 1529 1530 1531 1531 1531 1531
1530 1530 1531 1531 1530 1530 1530 1530 1529 1528 1528 1527 1527 1526 1525 1525 1525 1524 1524 1523 1523 1523 1522 1523 1522 1522 1522 1523 1523 1523 1524 1524 1524 1524 1525 1526 1527 1528 1528 1529 1529 1530 1530
1529 1529 1530 1530 1530 1530 1530 1529 1528 1528 1527 1527 1526 1526 1525 1525 1524 1524 1522 1523 1522 1522 1521 1521 1521 1521 1522 1522 1522 1523 1523 1524 1523 1524 1523 1524 1525 1526 1527 1527 1527 1527 1527
1528 1529 1529 1529 1529 1529 1529 1529 1528 1527 1527 1527 1526 1526 1525 1524 1524 1523 1522 1522 1521 1521 1521 1520 1520 1520 1521 1521 1521 1522 1522 1521 1522 1523 1522 1523 1523 1524 1524 1525 1525 1524 1525
1527 1528 1528 1528 1528 1528 1528 1529 1528 1528 1527 1527 1526 1526 1525 1524 1523 1523 1522 1521 1520 1521 1520 1520 1520 1520 1520 1521 1521 1520 1521 1521 1522 1522 1522 1522 1521 1522 1522 1523 1523 1523 1522
1526 1527 1527 1527 1527 1527 1528 1528 1528 1528 1527 1527 1526 1526 1525 1524 1523 1522 1521 1521 1520 1520 1519 1519 1519 1519 1519 1520 1520 1520 1520 1520 1520 1521 1521 1521 1521 1521 1521 1521 1521 1521 1520
1525 1526 1526 1526 1526 1526 1527 1527 1527 1527 1527 1527 1526 1526 1525 1524 1523 1522 1521 1520 1519 1519 1518 1518 1517 1518 1518 1518 1518 1519 1519 1519 1519 1520 1519 1519 1519 1520 1519 1519 1519 1519 1518